Home > Weather > Brownsville > Past weeks

Flag for USA Past Weather in Brownsville, Texas, USA — Yesterday and Last 2 Weeks

Now
89 °F

Sunny.


Feels Like: 100 °F
Forecast: 81 / 94 °F
Wind: 21 mph from Southeast

Location: Brownsville / South Padre Island International Airport

Current Time: Jul 26, 2016 at 8:14:16 PM

Latest Report: Jul 26, 2016 at 6:53 PM


Visibility: 10 mi

Pressure: 29.85 "Hg

Humidity: 65%

Dew Point: 76 °F

Location of BrownsvilleLocation

Past Weather in Brownsville — Graph

°F

Brownsville Temperature Yesterday

Maximum temperature yesterday: 96 °F (at 3:53 PM)
Minimum temperature yesterday: 79 °F (at 5:53 AM)
Average temperature yesterday: 87 °F

High & Low Weather Summary for the Past Weeks

 TemperatureHumidityPressure
High96 °F (Jul 13, 1:53 PM)97% (Jul 15, 6:53 AM)30.13 "Hg (Jul 15, 6:53 AM)
Low76 °F (Jul 22, 6:53 AM)46% (Jul 13, 1:53 PM)29.83 "Hg (Jul 26, 4:53 PM)
Average86 °F74%29.98 "Hg
* Reported Jul 11 6:53 PM — Jul 26 6:53 PM, Brownsville, Weather by CustomWeather, © 2016

Note: Actual official high and low records may vary slightly from our data, if they occured in-between our weather recording intervals... More about our weather records

Advertising

Brownsville Weather History for the Previous 24 Hours

Scroll right to see more
 ConditionsComfort  
Time TempWeatherWind HumidityBarometerVisibility
6:53 PM
Tue, Jul 26
89 °FSunny.21 mph65%29.85 "Hg10 mi
5:53 PM91 °FPassing clouds.21 mph60%29.84 "Hg10 mi
4:53 PM93 °FPassing clouds.26 mph54%29.83 "Hg10 mi
3:53 PM92 °FScattered clouds.24 mph56%29.84 "Hg10 mi
2:53 PM95 °FPassing clouds.22 mph47%29.87 "Hg10 mi
1:53 PM95 °FScattered clouds.18 mph47%29.89 "Hg10 mi
12:53 PM94 °FScattered clouds.18 mph49%29.91 "Hg10 mi
11:53 AM95 °FSunny.18 mph47%29.92 "Hg10 mi
10:53 AM92 °FPassing clouds.16 mph54%29.92 "Hg10 mi
9:53 AM89 °FSunny.18 mph63%29.90 "Hg10 mi
8:53 AM85 °FSunny.16 mph75%29.90 "Hg10 mi
7:53 AM83 °FSunny.9 mph82%29.88 "Hg10 mi
6:53 AM81 °FClear.9 mph85%29.87 "Hg10 mi
5:53 AM81 °FPassing clouds.10 mph88%29.86 "Hg10 mi
4:53 AM82 °FPassing clouds.9 mph85%29.86 "Hg10 mi
3:53 AM82 °FClear.13 mph85%29.86 "Hg10 mi
2:53 AM82 °FPassing clouds.12 mph88%29.86 "Hg10 mi
1:53 AM82 °FPassing clouds.9 mph85%29.88 "Hg10 mi
12:53 AM82 °FClear.10 mph85%29.89 "Hg10 mi
11:53 PM
Mon, Jul 25
83 °FClear.8 mph82%29.90 "Hg10 mi
10:53 PM83 °FClear.9 mph85%29.89 "Hg10 mi
9:53 PM84 °FClear.9 mph83%29.88 "Hg10 mi
8:53 PM85 °FSunny.12 mph77%29.87 "Hg10 mi
Weather by CustomWeather, © 2016

See weather overviewHow to use our weather pages